Three Rivers, MI

3:31 PM EDT on September 20, 2017 (GMT -0400)
Three Rivers Municipal-Haines

Weather History for KHAI - July, 2012

Change the Weather History Date:

Sunday, July 15, 2012

  Actual Average Record
Temperature  
Mean Temperature 78 °F -  
Max Temperature 91 °F 85 °F 96 °F (1976)
Min Temperature 66 °F 61 °F 47 °F (1960)
Cooling Degree Days 14    
Growing Degree Days 28 (Base 50)    
Moisture  
Dew Point 65 °F    
Average Humidity 68    
Maximum Humidity 93    
Minimum Humidity 37    
Precipitation  
Precipitation 0.00 in - - ()
Sea Level Pressure  
Sea Level Pressure 30.04 in    
Wind  
Wind Speed 4 mph (West)    
Max Wind Speed 16 mph    
Max Gust Speed 23 mph    
Visibility 8 miles    
Events      
Averages and records for this station are not official NWS values.
T = Trace of Precipitation, MM = Missing Value Source: NWS Daily Summary

Daily Weather History Graph

Daily Weather History Graph

Search for Another Location

Airport or City:

Trip Planner

Search our weather history database for the weather conditions in past years. The results will help you decide how hot, cold, wet, or windy it might be!

Date:

Astronomy

Jul. 15, 2012 Rise Set
Actual Time 6:20 AM EDT 9:15 PM EDT
Civil Twilight 5:47 AM EDT 9:48 PM EDT
Nautical Twilight 5:05 AM EDT 10:30 PM EDT
Astronomical Twilight 4:16 AM EDT 11:19 PM EDT
Moon 3:16 AM EDT (7/15) 6:31 PM EDT (7/15)
Length of Visible Light 16h 01m
Length of Day
14h 55m
Waning Crescent, 12% of the Moon is Illuminated
Jul 15
Waning Crescent
Jul 19
New
Jul 26
First Quarter
Aug 1
Full
Aug 9
Last Quarter

Hourly Weather History & Observations

Time (EDT) Temp. Heat Index Dew Point Humidity Pressure Visibility Wind Dir Wind Speed Gust Speed Precip Events Conditions
12:13 AM 70.2 °F - 67.5 °F 91% 30.05 in 7.0 mi Calm Calm - N/A   Clear
12:33 AM 70.0 °F - 67.1 °F 91% 30.06 in 5.0 mi Calm Calm - N/A   Clear
12:53 AM 70.0 °F - 67.3 °F 91% 30.06 in 5.0 mi Calm Calm - N/A   Clear
1:13 AM 70.2 °F - 67.6 °F 92% 30.06 in 5.0 mi Calm Calm - N/A   Clear
1:33 AM 70.0 °F - 67.3 °F 91% 30.06 in 5.0 mi Calm Calm - N/A   Clear
1:53 AM 69.3 °F - 67.1 °F 93% 30.05 in 4.0 mi Calm Calm - N/A   Clear
2:13 AM 69.8 °F - 67.3 °F 92% 30.05 in 4.0 mi Calm Calm - N/A   Clear
2:53 AM 69.3 °F - 66.7 °F 92% 30.05 in 4.0 mi Calm Calm - N/A   Mostly Cloudy
3:12 AM 68.9 °F - 66.4 °F 92% 30.05 in 5.0 mi Calm Calm - N/A   Scattered Clouds
3:33 AM 69.1 °F - 66.6 °F 92% 30.05 in 5.0 mi Calm Calm - N/A   Scattered Clouds
3:52 AM 69.8 °F - 66.7 °F 90% 30.05 in 7.0 mi Calm Calm - N/A   Scattered Clouds
4:13 AM 68.4 °F - 65.8 °F 92% 30.04 in 5.0 mi South 3.5 mph - N/A   Scattered Clouds
4:33 AM 68.4 °F - 65.5 °F 90% 30.04 in 7.0 mi Calm Calm - N/A   Clear
4:52 AM 68.0 °F - 65.1 °F 90% 30.04 in 7.0 mi Calm Calm - N/A   Clear
5:13 AM 67.5 °F - 64.8 °F 91% 30.04 in 7.0 mi SSW 3.5 mph - N/A   Clear
5:32 AM 67.6 °F - 64.8 °F 90% 30.04 in 7.0 mi Calm Calm - N/A   Clear
5:53 AM 67.8 °F - 64.8 °F 90% 30.05 in 7.0 mi Calm Calm - N/A   Clear
6:12 AM 66.9 °F - 64.2 °F 91% 30.05 in 5.0 mi Calm Calm - N/A   Clear
6:33 AM 66.7 °F - 64.0 °F 91% 30.06 in 4.0 mi Calm Calm - N/A   Clear
6:53 AM 67.5 °F - 64.9 °F 92% 30.06 in 4.0 mi Calm Calm - N/A   Clear
7:12 AM 68.0 °F - 65.3 °F 91% 30.06 in 5.0 mi Calm Calm - N/A   Clear
7:33 AM 68.9 °F - 66.0 °F 90% 30.07 in 5.0 mi Calm Calm - N/A   Clear
7:53 AM 69.8 °F - 66.6 °F 89% 30.07 in 5.0 mi SSW 3.5 mph - N/A   Clear
8:13 AM 71.2 °F - 67.5 °F 88% 30.07 in 5.0 mi SW 4.6 mph - N/A   Clear
8:33 AM 72.5 °F - 68.0 °F 86% 30.08 in 7.0 mi SW 6.9 mph - N/A   Clear
8:53 AM 73.4 °F - 68.0 °F 83% 30.08 in 7.0 mi SW 5.8 mph - N/A   Clear
9:13 AM 74.7 °F - 68.7 °F 82% 30.08 in 7.0 mi Calm Calm - N/A   Clear
9:33 AM 76.1 °F - 68.9 °F 78% 30.08 in 10.0 mi NNW 6.9 mph - N/A   Clear
9:52 AM 77.4 °F - 68.9 °F 75% 30.08 in 10.0 mi NW 5.8 mph - N/A   Clear
10:13 AM 79.2 °F - 69.4 °F 72% 30.08 in 10.0 mi WNW 6.9 mph - N/A   Clear
10:33 AM 79.7 °F - 69.3 °F 70% 30.08 in 10.0 mi SW 6.9 mph - N/A   Clear
10:52 AM 81.0 °F 84.2 °F 69.6 °F 68% 30.08 in 10.0 mi West 8.1 mph - N/A   Clear
11:13 AM 82.0 °F 85.5 °F 69.3 °F 65% 30.08 in 10.0 mi West 4.6 mph - N/A   Clear
11:33 AM 83.5 °F 87.2 °F 69.4 °F 62% 30.07 in 10.0 mi West 5.8 mph - N/A   Clear
11:53 AM 84.4 °F 87.9 °F 68.7 °F 59% 30.07 in 10.0 mi SW 10.4 mph - N/A   Scattered Clouds
12:13 PM 85.8 °F 87.9 °F 65.7 °F 51% 30.07 in 10.0 mi West 12.7 mph 17.3 mph N/A   Scattered Clouds
12:32 PM 86.4 °F 88.4 °F 65.5 °F 50% 30.07 in 10.0 mi WNW 11.5 mph 18.4 mph N/A   Clear
12:53 PM 86.9 °F 88.6 °F 65.1 °F 48% 30.07 in 10.0 mi West 8.1 mph - N/A   Scattered Clouds
1:13 PM 87.6 °F 89.7 °F 65.7 °F 48% 30.06 in 10.0 mi WSW 6.9 mph 18.4 mph N/A   Scattered Clouds
1:33 PM 88.3 °F 89.9 °F 64.6 °F 45% 30.06 in 10.0 mi WSW 9.2 mph 16.1 mph N/A   Scattered Clouds
1:53 PM 88.9 °F 90.3 °F 64.4 °F 44% 30.05 in 10.0 mi West 10.4 mph - N/A   Scattered Clouds
2:12 PM 87.6 °F 88.8 °F 64.0 °F 45% 30.04 in 10.0 mi West 11.5 mph - N/A   Scattered Clouds
2:33 PM 89.6 °F 90.8 °F 64.0 °F 42% 30.04 in 10.0 mi West 8.1 mph - N/A   Scattered Clouds
2:53 PM 89.1 °F 90.6 °F 64.4 °F 44% 30.03 in 10.0 mi West 9.2 mph - N/A   Scattered Clouds
3:12 PM 89.1 °F 91.3 °F 65.8 °F 46% 30.03 in 10.0 mi West 11.5 mph 17.3 mph N/A   Mostly Cloudy
3:33 PM 87.3 °F 89.2 °F 65.7 °F 48% 30.02 in 10.0 mi West 12.7 mph - N/A   Mostly Cloudy
3:53 PM 89.4 °F 91.2 °F 64.6 °F 44% 30.02 in 10.0 mi WNW 16.1 mph 23.0 mph N/A   Scattered Clouds
4:13 PM 91.2 °F 92.5 °F 63.5 °F 40% 30.01 in 10.0 mi West 13.8 mph 23.0 mph N/A   Scattered Clouds
4:33 PM 90.7 °F 90.7 °F 61.3 °F 37% 30.01 in 10.0 mi West 16.1 mph 20.7 mph N/A   Scattered Clouds
4:53 PM 89.6 °F 90.4 °F 63.0 °F 41% 30.01 in 10.0 mi WNW 13.8 mph - N/A   Clear
5:13 PM 90.0 °F 89.7 °F 60.8 °F 37% 30.00 in 10.0 mi West 15.0 mph 20.7 mph N/A   Clear
5:33 PM 88.3 °F 88.6 °F 61.7 °F 41% 30.00 in 10.0 mi NW 12.7 mph 18.4 mph N/A   Clear
5:52 PM 88.0 °F 87.6 °F 60.4 °F 39% 30.00 in 10.0 mi NW 15.0 mph 19.6 mph N/A   Clear
6:13 PM 88.0 °F 87.6 °F 60.4 °F 39% 30.00 in 10.0 mi West 13.8 mph 20.7 mph N/A   Clear
6:33 PM 87.8 °F 87.1 °F 59.2 °F 38% 30.00 in 10.0 mi West 15.0 mph - N/A   Clear
6:53 PM 87.1 °F 87.0 °F 60.4 °F 41% 30.00 in 10.0 mi West 13.8 mph 18.4 mph N/A   Clear
7:13 PM 86.5 °F 86.1 °F 59.9 °F 40% 30.00 in 10.0 mi WNW 10.4 mph - N/A   Clear
7:33 PM 86.0 °F 85.7 °F 59.5 °F 41% 30.00 in 10.0 mi WNW 6.9 mph - N/A   Clear
7:53 PM 85.1 °F 84.8 °F 59.4 °F 42% 30.01 in 10.0 mi WNW 10.4 mph 16.1 mph N/A   Clear
8:13 PM 84.0 °F 83.8 °F 59.0 °F 43% 30.01 in 10.0 mi WNW 5.8 mph - N/A   Clear
8:33 PM 82.0 °F 82.1 °F 58.8 °F 45% 30.02 in 10.0 mi WNW 5.8 mph - N/A   Clear
9:13 PM 78.1 °F - 61.7 °F 57% 30.02 in 10.0 mi Calm Calm - N/A   Clear
9:32 PM 75.9 °F - 61.9 °F 62% 30.03 in 10.0 mi Calm Calm - N/A   Clear
9:53 PM 75.4 °F - 62.4 °F 64% 30.04 in 10.0 mi Calm Calm - N/A   Clear
10:13 PM 75.0 °F - 62.8 °F 66% 30.04 in 10.0 mi Calm Calm - N/A   Clear
10:33 PM 72.3 °F - 62.2 °F 70% 30.05 in 10.0 mi Calm Calm - N/A   Clear
10:53 PM 71.1 °F - 63.5 °F 77% 30.04 in 10.0 mi Calm Calm - N/A   Clear
11:13 PM 70.7 °F - 62.8 °F 76% 30.04 in 10.0 mi Calm Calm - N/A   Clear
11:33 PM 69.8 °F - 63.7 °F 81% 30.04 in 10.0 mi Calm Calm - N/A   Clear
11:53 PM 69.3 °F - 64.0 °F 83% 30.04 in 10.0 mi Calm Calm - N/A   Clear